Liberal, KS

11:46 PM CDT on October 18, 2017 (GMT -0500)
Liberal Municipal

Weather History for KLBL - July, 2013

Change the Weather History Date:

Friday, July 19, 2013

  Actual Average Record
Temperature  
Mean Temperature 82 °F -  
Max Temperature 95 °F 95 °F 108 °F (1940)
Min Temperature 69 °F 67 °F 60 °F (1960)
Cooling Degree Days 17    
Growing Degree Days 32 (Base 50)    
Moisture  
Dew Point 62 °F    
Average Humidity 53    
Maximum Humidity 78    
Minimum Humidity 32    
Precipitation  
Precipitation 0.00 in - - ()
Sea Level Pressure  
Sea Level Pressure 30.02 in    
Wind  
Wind Speed 16 mph (South)    
Max Wind Speed 23 mph    
Max Gust Speed 30 mph    
Visibility 10 miles    
Events      
Averages and records for this station are not official NWS values.
T = Trace of Precipitation, MM = Missing Value Source: NWS Daily Summary

Daily Weather History Graph

Daily Weather History Graph

Search for Another Location

Airport or City:

Trip Planner

Search our weather history database for the weather conditions in past years. The results will help you decide how hot, cold, wet, or windy it might be!

Date:

Astronomy

Jul. 19, 2013 Rise Set
Actual Time 6:38 AM CDT 9:00 PM CDT
Civil Twilight 6:09 AM CDT 9:30 PM CDT
Nautical Twilight 5:32 AM CDT 10:07 PM CDT
Astronomical Twilight 4:52 AM CDT 10:47 PM CDT
Moon 6:05 PM CDT 3:21 AM CDT
Length of Visible Light 15h 21m
Length of Day
14h 21m
Waxing Gibbous, 87% of the Moon is Illuminated
Jul 19
Waxing Gibbous
Jul 22
Full
Jul 29
Last Quarter
Aug 6
New
Aug 14
First Quarter

Hourly Weather History & Observations

Time (CDT) Temp. Heat Index Dew Point Humidity Pressure Visibility Wind Dir Wind Speed Gust Speed Precip Events Conditions
12:15 AM 73.4 °F - 62.6 °F 69% 30.11 in 10.0 mi South 15.0 mph - N/A   Clear
12:35 AM 73.4 °F - 62.6 °F 69% 30.11 in 10.0 mi South 16.1 mph - N/A   Clear
12:55 AM 73.4 °F - 62.6 °F 69% 30.10 in 10.0 mi South 16.1 mph - N/A   Clear
1:15 AM 73.4 °F - 62.6 °F 69% 30.10 in 10.0 mi South 13.8 mph - N/A   Clear
1:35 AM 73.4 °F - 62.6 °F 69% 30.10 in 10.0 mi South 13.8 mph - N/A   Clear
1:55 AM 71.6 °F - 62.6 °F 73% 30.10 in 10.0 mi South 13.8 mph - N/A   Clear
2:15 AM 71.6 °F - 62.6 °F 73% 30.09 in 10.0 mi South 15.0 mph - N/A   Clear
2:35 AM 71.6 °F - 62.6 °F 73% 30.09 in 10.0 mi South 15.0 mph - N/A   Clear
2:55 AM 71.6 °F - 62.6 °F 73% 30.09 in 10.0 mi South 13.8 mph - N/A   Clear
3:15 AM 71.6 °F - 62.6 °F 73% 30.08 in 10.0 mi South 15.0 mph - N/A   Clear
3:35 AM 71.6 °F - 62.6 °F 73% 30.08 in 10.0 mi South 13.8 mph - N/A   Clear
3:55 AM 71.6 °F - 62.6 °F 73% 30.07 in 10.0 mi South 15.0 mph - N/A   Clear
4:15 AM 69.8 °F - 62.6 °F 78% 30.06 in 10.0 mi SSW 13.8 mph - N/A   Clear
4:35 AM 69.8 °F - 62.6 °F 78% 30.06 in 10.0 mi SSW 12.7 mph - N/A   Clear
4:55 AM 69.8 °F - 62.6 °F 78% 30.06 in 10.0 mi South 12.7 mph - N/A   Clear
5:15 AM 69.8 °F - 62.6 °F 78% 30.06 in 10.0 mi South 13.8 mph - N/A   Clear
5:35 AM 69.8 °F - 62.6 °F 78% 30.06 in 10.0 mi South 13.8 mph - N/A   Clear
5:55 AM 69.8 °F - 62.6 °F 78% 30.06 in 10.0 mi South 13.8 mph - N/A   Clear
6:15 AM 69.8 °F - 62.6 °F 78% 30.06 in 10.0 mi South 13.8 mph - N/A   Clear
6:35 AM 69.8 °F - 62.6 °F 78% 30.06 in 10.0 mi SSW 15.0 mph - N/A   Clear
6:55 AM 69.8 °F - 62.6 °F 78% 30.06 in 10.0 mi SSW 15.0 mph - N/A   Clear
7:15 AM 69.8 °F - 62.6 °F 78% 30.06 in 10.0 mi SSW 13.8 mph - N/A   Clear
7:35 AM 69.8 °F - 62.6 °F 78% 30.06 in 10.0 mi SSW 15.0 mph - N/A   Clear
7:55 AM 71.6 °F - 62.6 °F 73% 30.06 in 10.0 mi SW 16.1 mph - N/A   Clear
8:15 AM 73.4 °F - 64.4 °F 73% 30.06 in 10.0 mi SSW 13.8 mph - N/A   Clear
8:35 AM 75.2 °F - 64.4 °F 69% 30.06 in 10.0 mi SSW 19.6 mph 24.2 mph N/A   Clear
8:55 AM 77.0 °F - 64.4 °F 65% 30.05 in 10.0 mi SW 20.7 mph 28.8 mph N/A   Clear
9:15 AM 78.8 °F - 64.4 °F 61% 30.05 in 10.0 mi SSW 17.3 mph 24.2 mph N/A   Clear
9:35 AM 78.8 °F - 64.4 °F 61% 30.05 in 10.0 mi SSW 20.7 mph 24.2 mph N/A   Clear
9:55 AM 80.6 °F 82.3 °F 64.4 °F 58% 30.05 in 10.0 mi SW 21.9 mph 26.5 mph N/A   Clear
10:15 AM 82.4 °F 83.9 °F 64.4 °F 54% 30.05 in 10.0 mi SW 20.7 mph - N/A   Clear
10:35 AM 82.4 °F 83.4 °F 62.6 °F 51% 30.05 in 10.0 mi SSW 19.6 mph 24.2 mph N/A   Clear
10:55 AM 84.2 °F 85.0 °F 62.6 °F 48% 30.05 in 10.0 mi SSW 17.3 mph 25.3 mph N/A   Clear
11:15 AM 86.0 °F 86.6 °F 62.6 °F 45% 30.05 in 10.0 mi SSW 19.6 mph - N/A   Clear
11:35 AM 87.8 °F 88.5 °F 62.6 °F 43% 30.04 in 10.0 mi SW 16.1 mph 23.0 mph N/A   Clear
11:55 AM 87.8 °F 88.5 °F 62.6 °F 43% 30.04 in 10.0 mi SSW 17.3 mph 20.7 mph N/A   Clear
12:15 PM 87.8 °F 88.5 °F 62.6 °F 43% 30.04 in 10.0 mi South 20.7 mph 26.5 mph N/A   Clear
12:35 PM 89.6 °F 90.1 °F 62.6 °F 40% 30.03 in 10.0 mi SSW 21.9 mph 25.3 mph N/A   Clear
12:55 PM 89.6 °F 90.1 °F 62.6 °F 40% 30.03 in 10.0 mi SSW 18.4 mph 21.9 mph N/A   Clear
1:15 PM 91.4 °F 92.1 °F 62.6 °F 38% 30.02 in 10.0 mi South 16.1 mph 24.2 mph N/A   Clear
1:35 PM 91.4 °F 92.1 °F 62.6 °F 38% 30.01 in 10.0 mi South 18.4 mph 24.2 mph N/A   Clear
1:55 PM 91.4 °F 92.1 °F 62.6 °F 38% 30.01 in 10.0 mi SSW 17.3 mph 28.8 mph N/A   Clear
2:15 PM 93.2 °F 94.1 °F 62.6 °F 36% 30.01 in 10.0 mi South 17.3 mph 26.5 mph N/A   Clear
2:35 PM 93.2 °F 94.1 °F 62.6 °F 36% 30.00 in 10.0 mi South 20.7 mph 25.3 mph N/A   Clear
2:55 PM 95.0 °F 96.0 °F 62.6 °F 34% 29.99 in 10.0 mi South 23.0 mph 27.6 mph N/A   Partly Cloudy
3:15 PM 93.2 °F 94.1 °F 62.6 °F 36% 29.99 in 10.0 mi SSW 20.7 mph 27.6 mph N/A   Scattered Clouds
3:35 PM 93.2 °F 94.1 °F 62.6 °F 36% 29.99 in 10.0 mi South 23.0 mph 26.5 mph N/A   Scattered Clouds
3:55 PM 93.2 °F 94.1 °F 62.6 °F 36% 29.97 in 10.0 mi SW 20.7 mph 26.5 mph N/A   Partly Cloudy
4:15 PM 95.0 °F 96.0 °F 62.6 °F 34% 29.96 in 10.0 mi South 19.6 mph 28.8 mph N/A   Partly Cloudy
4:35 PM 95.0 °F 96.0 °F 62.6 °F 34% 29.95 in 10.0 mi South 23.0 mph 29.9 mph N/A   Clear
4:55 PM 95.0 °F 96.0 °F 62.6 °F 34% 29.94 in 10.0 mi South 18.4 mph 27.6 mph N/A   Clear
5:15 PM 95.0 °F 95.2 °F 60.8 °F 32% 29.94 in 10.0 mi South 21.9 mph 29.9 mph N/A   Partly Cloudy
5:35 PM 95.0 °F 95.2 °F 60.8 °F 32% 29.93 in 10.0 mi SSW 21.9 mph 26.5 mph N/A   Partly Cloudy
5:55 PM 95.0 °F 95.2 °F 60.8 °F 32% 29.93 in 10.0 mi South 18.4 mph - N/A   Clear
6:15 PM 93.2 °F 93.3 °F 60.8 °F 34% 29.93 in 10.0 mi South 18.4 mph 23.0 mph N/A   Clear
6:35 PM 93.2 °F 93.3 °F 60.8 °F 34% 29.93 in 10.0 mi South 16.1 mph 25.3 mph N/A   Clear
6:55 PM 93.2 °F 93.3 °F 60.8 °F 34% 29.92 in 10.0 mi South 17.3 mph 24.2 mph N/A   Clear
7:15 PM 91.4 °F 91.4 °F 60.8 °F 36% 29.92 in 10.0 mi South 19.6 mph 26.5 mph N/A   Clear
7:35 PM 91.4 °F 91.4 °F 60.8 °F 36% 29.93 in 10.0 mi South 19.6 mph 24.2 mph N/A   Clear
7:55 PM 91.4 °F 91.4 °F 60.8 °F 36% 29.93 in 10.0 mi South 20.7 mph 25.3 mph N/A   Clear
8:15 PM 89.6 °F 88.9 °F 59.0 °F 36% 29.94 in 10.0 mi South 17.3 mph - N/A   Clear
8:35 PM 87.8 °F 87.1 °F 59.0 °F 38% 29.95 in 10.0 mi South 18.4 mph - N/A   Clear
8:55 PM 86.0 °F 85.4 °F 59.0 °F 40% 29.95 in 10.0 mi South 15.0 mph - N/A   Clear
9:15 PM 84.2 °F 83.5 °F 57.2 °F 40% 29.95 in 10.0 mi South 12.7 mph - N/A   Clear
9:35 PM 84.2 °F 83.8 °F 59.0 °F 42% 29.95 in 10.0 mi South 15.0 mph - N/A   Clear
9:55 PM 82.4 °F 82.5 °F 59.0 °F 45% 29.96 in 10.0 mi South 15.0 mph - N/A   Clear
10:15 PM 82.4 °F 82.5 °F 59.0 °F 45% 29.98 in 10.0 mi South 11.5 mph - N/A   Clear
10:35 PM 82.4 °F 82.5 °F 59.0 °F 45% 30.00 in 10.0 mi South 11.5 mph - N/A   Clear
10:55 PM 80.6 °F 81.1 °F 59.0 °F 48% 30.00 in 10.0 mi South 12.7 mph - N/A   Scattered Clouds
11:15 PM 80.6 °F 81.1 °F 59.0 °F 48% 30.01 in 10.0 mi South 15.0 mph - N/A   Mostly Cloudy
11:35 PM 80.6 °F 81.1 °F 59.0 °F 48% 30.01 in 10.0 mi South 16.1 mph - N/A   Scattered Clouds
11:55 PM 78.8 °F - 59.0 °F 51% 30.01 in 10.0 mi South 15.0 mph - N/A   Clear